星链-4267 (STARLINK-4267 )

导读

STARLINK-4267是美国太空探索技术公司(SpaceX)星链互联网卫星星座中的一员,于2022年6月17日发射升空。作为星链低轨卫星互联网项目的组成部分,它承担着为全球提供高速宽带互联网服务的任务,服役至今助力星链完成全球覆盖,支撑航天组网与天地互联网建设。

Basic Information
目录编号:
52864
目录名称:
STARLINK-4267
国际标识:
2022-062AL
轨道中心:
EARTH
卫星名称:
星链-4267
卫星全名:
星链-4267 (STARLINK-4267 )
卫星状态:
在轨 (已飞行1540 天)
发射日期:
2022-06-17 UTC
国别 :
美国 (US)
星等 :
--
Orbit Information
数据来源 国际轨道数据
星历时间: 2026-09-02T21:01:34+0800
1天前
查看轨道信息
半长轴: 6837.881km
偏心率: 0.0001163
轨道倾角: 53.160°
近地点辐角 84.289°
升交点赤经 301.354°
平近点角 275.825°
近地点: 458.948km
远地点: 460.54km
周期: 93.787分钟
每日圈数: 15.353963
Detailed Information
固有亮度:
5
最大亮度:
2.5
卫星平台:
Starlink v1.5
覆盖范围:
全球
运营商:
太空探索技术公司
运营商所在国:
美国
制造商(研发单位):
太空探索技术公司
制造商所在国:
美国
使用方式:
暂无
Satellite Introduction
星链(Starlink)计划是由太空探索技术公司(SpaceX)提出的一个巨型低轨卫星互联网星座项目,计划在2019年至2024年间在太空搭建由约1.2万颗卫星组成的“星链”网络,其中1584颗将部署在地球上空550千米处的近地轨道,并从2020年开始工作。该卫星仍在工作。
2D Orbit Map
3D Orbit Map
Orbit Altitude Analysis Chart
Orbit Inclination Analysis Chart
Orbit Comprehensive Analysis Chart
View Comprehensive Chart
Conjunction Data List
Event ID Objects TCA Miss Dist (km) Collision Risk Probability Collision Risk Index (CRI) Action
CDM_260903-025605-286406-474823
2026-09-03T
02:56:41+0000
2.682 km
极远距离
1.341149E-6 低风险 0.38
CDM_260903-083105-286406-043422
2026-09-03T
08:31:08+0000
2.809 km
极远距离
1.303302E-6 低风险 0.37
CDM_260903-214205-286406-629122
2026-09-03T
21:42:38+0000
2.837 km
极远距离
1.252182E-6 低风险 0.37
CDM_260902-085405-286406-984421
2026-09-02T
08:54:54+0000
2.813 km
极远距离
1.179319E-6 低风险 0.36
CDM_260905-130905-113005-286421
2026-09-05T
13:09:50+0000
2.809 km
极远距离
1.013028E-6 低风险 0.35
CDM_260904-231605-286406-444321
2026-09-04T
23:16:40+0000
2.667 km
极远距离
8.100739E-7 极低风险 0.33
CDM_260905-000305-286406-444321
2026-09-05T
00:03:33+0000
2.688 km
极远距离
8.005012E-7 极低风险 0.33